Preview of NWS' New Version of Forecast
This preview is not operational and should not be used for support decisions.
Latest weather observations around

Philadelphia, Philadelphia International Airport (KPHL)

Using English Units (Switch to International System of Units)
Date/ Time (EDT) Wind (mph) Vis. (mi) Weather Sky Cond. Temp (°F) Rel. Humidity Wind Chill (°F) Heat Index (°F) Pressure Precip. (in)
Air Dwpt 6 hour Altimeter (inHg) Sea level (inHg) 1 hr 3 hr 6 hr
Max Min
May 22 08:54 3 10 Partly Cloudy SCT280 65 39     38%     30.27 30.27      
May 22 07:54 N 5 10 Mostly Clear FEW280 61 39     44%     30.25 30.24      
May 22 06:54 3 10 Mostly Clear FEW180 FEW280 57 38     49%     30.23 30.23      
May 22 05:54 N 3 10 Partly Cloudy FEW180 SCT280 55 38     52%     30.21 30.2      
May 22 04:54 NNW 5 10 Clear CLR 55 38     52%     30.19 30.19      
May 22 03:54 NW 5 10 Mostly Clear FEW280 57 38     49%     30.19 30.19      
May 22 02:54 NNW 6 10 Partly Cloudy SCT280 56 38     51%     30.17 30.17      
May 22 01:54 N 7 10 Mostly Clear FEW280 59 37     44%     30.16 30.16      
May 22 00:54 N 8 10 Mostly Clear FEW280 61 36     39%     30.15 30.15      
May 21 23:54 N 11 10 Partly Cloudy SCT280 62 36     38%     30.13 30.13      
May 21 22:54 N 15 10 Partly Cloudy SCT280 64 33     31%     30.12 30.11      
May 21 21:54 N 8 10 Mostly Cloudy BKN250 66 36     33%     30.09 30.09      
May 21 20:54 N 10 10 Mostly Cloudy BKN250 68 36     31%     30.05 30.04      
May 21 19:54 NW 10 10 Mostly Cloudy BKN250 71 40     32%   69 30.02 30.02      
May 21 18:54 WNW 11 10 Mostly Cloudy FEW150 BKN250 72 40     31%   70 30 30      
May 21 17:54 WNW 10 10 Mostly Cloudy SCT150 BKN250 71 39     31%   69 30 30      
May 21 16:54 WNW 15 10 Partly Cloudy SCT250 72 38     29%   70 29.99 29.99      
May 21 15:54   10 Partly Cloudy SCT250 71 39     31%   69 29.99 29.98      
May 21 14:54 NW 16 10 Partly Cloudy SCT250 69 38     32%     29.99 29.98      
May 21 13:54 NW 16 10 Mostly Cloudy BKN250 68 38     33%     30 29.99      
May 21 12:54   10 Mostly Cloudy BKN250 67 38     34%     30 29.99      
May 21 11:54 NNW 17 10 Mostly Cloudy BKN250 64 37     37%     30.01 30.01      
May 21 10:54 NNW 20 10 Mostly Cloudy and Windy FEW050 BKN250 64 38     38%     30.01 30.01      
May 21 09:54 WNW 18 10 Mostly Cloudy SCT045 BKN250 64 41     43%     29.99 29.99      
May 21 08:54 N 16 10 Mostly Cloudy SCT045 BKN280 63 42     46%     29.99 29.98      
May 21 07:54 NNW 13 10 Mostly Cloudy BKN046 61 42     50%     29.97 29.96      
May 21 06:54 NW 14 10 Partly Cloudy FEW050 SCT280 62 42     48%     29.94 29.94      
May 21 05:54 NNW 14 10 Partly Cloudy FEW050 SCT280 61 43     52%     29.92 29.92      
May 21 04:54 NW 15 10 Clear CLR 64 44     48%     29.91 29.9      
May 21 03:54 NW 16 10 Clear CLR 66 44     45%     29.89 29.88      
May 21 02:54 NW 18 10 Mostly Clear FEW075 68 46     45%     29.87 29.86      
May 21 01:54 NNW 15 10 Mostly Clear FEW075 70 52     53%     29.84 29.84      
May 21 00:54   10 Clear CLR 74 50     43%   73 29.83 29.82      
May 20 23:54 WNW 14 10 Mostly Clear FEW075 76 50     40%   75 29.82 29.81      
May 20 22:54 WNW 8 10 Mostly Clear FEW075 78 50     37%   77 29.8 29.8      
May 20 21:54 WNW 11 10 Mostly Clear FEW070 81 51     35%   80 29.79 29.79      
May 20 20:54 WNW 13 10 Mostly Clear FEW060 FEW120 83 54     37%   82 29.75 29.75      
May 20 19:54 WSW 10 10 Partly Cloudy FEW060 SCT120 83 63     51%   84 29.74 29.74      
May 20 18:54 WSW 13 10 Partly Cloudy SCT060 SCT120 85 62     46%   86 29.73 29.73      
May 20 17:54 SW 14 10 Mostly Cloudy SCT060 BKN110 BKN260 87 62     43%   88 29.74 29.73      
May 20 16:54   10 Mostly Cloudy SCT060 BKN090 BKN130 BKN260 87 61     42%   87 29.73 29.73      
May 20 15:54 SW 17 10 Mostly Cloudy SCT060 BKN090 BKN120 BKN260 88 61     40%   88 29.75 29.75      
May 20 14:54 WSW 16 10 Mostly Cloudy FEW060 BKN130 BKN260 88 61     40%   88 29.77 29.77      
May 20 13:54 WSW 16 10 Mostly Cloudy FEW060 BKN120 BKN260 87 62     43%   88 29.8 29.79      
May 20 12:54 SW 18 10 Mostly Cloudy FEW050 BKN110 BKN260 86 62     45%   87 29.82 29.82      
May 20 11:54 SW 17 10 Partly Cloudy FEW050 SCT110 SCT260 85 63     48%   86 29.84 29.84      
May 20 10:54 SW 13 10 Partly Cloudy FEW040 SCT110 SCT260 84 63     49%   85 29.84 29.84      
May 20 09:54 SW 11 10 Partly Cloudy FEW110 SCT200 81 64     56%   83 29.86 29.86      
May 20 08:54 SW 14 10 Partly Cloudy FEW110 SCT200 78 64     62%   79 29.87 29.87      
May 20 07:54 SW 11 10 Partly Cloudy SCT110 SCT180 SCT260 75 64     69%   75 29.88 29.87      
May 20 06:54 WSW 13 10 Mostly Cloudy SCT110 SCT180 BKN260 75 64     69%   75 29.87 29.86      
May 20 05:54 SW 11 10 Cloudy BKN110 BKN170 OVC250 75 64     69%   75 29.85 29.85      
May 20 04:54 SSW 9 10 Mostly Cloudy BKN130 BKN200 73 64     73%   73 29.85 29.84      
May 20 03:54 SSW 6 10 Mostly Cloudy SCT130 BKN210 BKN280 71 64     79%   72 29.86 29.86      
May 20 02:54 S 5 10 Mostly Cloudy SCT100 SCT220 BKN280 72 64     76%   72 29.88 29.87      
May 20 01:54 S 8 10 Cloudy FEW090 BKN220 OVC280 72 64     76%   72 29.89 29.88      
May 20 00:54 SSW 6 10 Cloudy FEW090 BKN220 OVC280 73 65     76%   74 29.9 29.9      
May 19 23:54 3 10 Cloudy SCT065 BKN220 OVC280 74 65     74%   74 29.91 29.91      
May 19 22:54 SSW 7 10 Cloudy FEW031 SCT090 OVC280 75 66     74%   76 29.92 29.91      
May 19 21:54 S 8 10 Mostly Cloudy FEW031 BKN250 75 66     74%   76 29.91 29.91      
May 19 20:54 SSE 9 10 Mostly Cloudy FEW031 BKN250 76 67     74%   77 29.9 29.89      
May 19 19:54 SSE 10 10 Mostly Cloudy FEW031 BKN250 78 68     71%   79 29.9 29.9      
May 19 18:54 SSE 7 10 Mostly Cloudy FEW031 BKN250 81 68     65%   84 29.9 29.9      
May 19 17:54 S 16 10 Partly Cloudy FEW031 SCT250 83 69     63%   87 29.9 29.9      
May 19 16:54 S 13 10 Partly Cloudy FEW031 SCT250 84 69     61%   88 29.92 29.92      
May 19 15:54 S 11 10 Partly Cloudy FEW031 SCT250 84 69     61%   88 29.94 29.94      
May 19 14:54 S 13 10 Partly Cloudy FEW032 SCT250 84 68     59%   87 29.98 29.97      
May 19 13:54 S 14 10 Partly Cloudy FEW032 SCT250 84 68     59%   87 29.99 29.99      
May 19 12:54 SSW 14 10 Partly Cloudy FEW035 SCT250 83 67     59%   86 30.02 30.01      
May 19 11:54 S 14 10 Partly Cloudy FEW036 SCT250 81 65     58%   83 30.03 30.02      
May 19 10:54 S 8 10 Partly Cloudy SCT250 77 63     62%   77 30.04 30.04      
May 19 09:54 5 10 Partly Cloudy FEW044 SCT250 73 62     68%   73 30.05 30.05      
May 14 16:54 SSW 9 10 Partly Cloudy FEW025 SCT230 73 62     68%   73 29.96 29.95      
May 14 12:54 3 7 Cloudy OVC014 64 57     78%     30.03 30.02      
May 13 16:54 SSE 6 10 Cloudy FEW007 OVC010 56 53     90%     30.1 30.1   0  
May 13 11:54 E 10 9 Cloudy OVC009 55 52     89%     30.15 30.15      
May 13 01:54 ENE 9 5 Fog/Mist OVC009 57 55     93%     30.1 30.09     1
May 12 11:15 6 9 Cloudy OVC010 61 56     83%     30.11        
May 12 09:54 E 6 10 Cloudy OVC009 59 56     90%     30.11 30.11      
May 12 07:54 ENE 14 6 Fog/Mist BKN008 OVC012 55 53     93%     30.11 30.11     1
May 12 05:54   3 Thunderstorms and Rain and Fog/Mist FEW018 BKN032 OVC046 54 52     93%     30.1 30.1 0    
May 12 03:51   4 Heavy Rain SCT035 OVC055 57 50     77%     30.15   0    
May 12 02:54 NNE 9 10 Cloudy BKN060 OVC100 60 46     60%     30.1 30.09      
May 12 00:54 E 5 10 Cloudy FEW041 BKN075 OVC095 60 46     60%     30.11 30.11 0    
May 11 15:54 3 10 Partly Cloudy FEW070 FEW100 SCT260 76 43     31%   75 30.01 30.01      
May 11 12:54 WNW 13 10 Partly Cloudy SCT055 SCT250 74 49     41%   73 30.01 30.01      
Jun 10 21:54 SSW 6 10 Mostly Clear FEW070 78 58     50%   78 30.05 30.04      
Jun 10 15:54   10 Mostly Clear FEW065 87 53     31%   85 29.99 29.99      
Jun 10 11:54 SW 9 10 Mostly Clear FEW150 FEW280 82 55     40%   81 30.03 30.03      
Jun 10 08:54 WSW 6 10 Mostly Cloudy FEW060 BKN120 BKN280 73 56     55%   73 30.03 30.03      
Jun 08 08:54 6 10 Clear   64 51     63%     30.01 30.01      
Jun 07 16:54 ENE 5 10 Cloudy OVC047 65 48     54%     30.02 30.01      
Jun 07 09:37 ENE 9 10 Cloudy BKN023 OVC040 57 47     69%     30.01        
Jun 06 06:32 NE 8 2 Rain and Fog/Mist SCT004 BKN012 OVC031 61 59     93%     29.7   0